User: anonymous   Login
Location: Wayah Bald
(35.1806°N, 83.5603°W)
Time: 10:16:55
(UTC-04:00)
Language:

Meteor 1-27 Rocket - Orbit

View from above orbital plane
View from above orbital plane
View from above satellite
View from above satellite

Ground track
Ground track

The orbit data is extracted from the following two-line orbital elements,

1 09904U 77024B   16243.58072907  .00000190  00000-0  10471-3 0  9992
2 09904  81.2611  50.6428 0055220  67.1869 293.5119 14.06831998 21944
Epoch (UTC): 30 August 2016 13:56:14
Eccentricity: 0.0055220
inclination: 81.2611°
perigee height: 830 km
apogee height: 910 km
right ascension of ascending node: 50.6428°
argument of perigee: 67.1869°
revolutions per day: 14.06831998
mean anomaly at epoch: 293.5119°
orbit number at epoch: 2194

The dashed part of the orbit path shows where the satellite is in the earth's shadow,  

DLR